Time,TemperatureF,DewpointF,PressureIn,WindDirection,WindDirectionDegrees,WindSpeedMPH,WindSpeedGustMPH,Humidity,HourlyPrecipIn,Conditions,Clouds,dailyrainin,SolarRadiationWatts/m^2,SoftwareType,DateUTC
2013-01-08 00:52:00,-17.0,-24.0,-100.00,ENE,77,0.0,0.0,70,-99.99,,,0.00,0.000000,,2013-01-08 09:52:00,
2013-01-08 01:52:00,-18.0,-25.0,-100.00,ESE,102,0.0,0.0,68,-99.99,,,0.00,0.000000,,2013-01-08 10:52:00,
2013-01-08 02:53:00,-18.0,-26.0,-100.00,NNW,331,0.0,0.0,67,-99.99,,,0.00,0.000000,,2013-01-08 11:53:00,
2013-01-08 03:53:00,-19.0,-27.0,-100.00,SSE,158,0.0,0.0,67,-99.99,,,0.00,0.000000,,2013-01-08 12:53:00,
2013-01-08 04:53:00,-19.0,-27.0,-100.00,North,354,0.0,0.0,66,-99.99,,,0.00,0.000000,,2013-01-08 13:53:00,
2013-01-08 05:53:00,-17.0,-24.0,-100.00,ENE,57,0.0,0.0,69,-99.99,,,0.00,0.000000,,2013-01-08 14:53:00,
2013-01-08 06:53:00,-18.0,-26.0,-100.00,NE,41,0.0,0.0,67,-99.99,,,0.00,0.000000,,2013-01-08 15:53:00,
2013-01-08 07:53:00,-16.0,-23.0,-100.00,WSW,243,0.0,0.0,69,-99.99,,,0.00,0.000000,,2013-01-08 16:53:00,
2013-01-08 08:53:00,-12.0,-18.0,-100.00,WSW,250,0.0,0.0,72,-99.99,,,0.00,0.000000,,2013-01-08 17:53:00,
2013-01-08 09:03:00,-12.0,-18.0,-100.00,WSW,250,0.0,0.0,72,-99.99,,,0.00,0.000000,,2013-01-08 18:03:00,
2013-01-08 09:12:00,-12.0,-18.0,-100.00,WSW,250,0.0,0.0,72,-99.99,,,0.00,0.000000,,2013-01-08 18:12:00,
2013-01-08 09:22:00,-12.0,-18.0,-100.00,WSW,250,0.0,0.0,72,-99.99,,,0.00,0.000000,,2013-01-08 18:22:00,
2013-01-08 09:53:00,-10.0,-16.0,-100.00,NW,319,0.0,0.0,74,-99.99,,,0.00,0.000000,,2013-01-08 18:53:00,
2013-01-08 10:03:00,-10.0,-16.0,-100.00,NW,319,0.0,0.0,74,-99.99,,,0.00,0.000000,,2013-01-08 19:03:00,
2013-01-08 10:12:00,-10.0,-16.0,-100.00,NW,319,0.0,0.0,74,-99.99,,,0.00,0.000000,,2013-01-08 19:12:00,
2013-01-08 10:22:00,-10.0,-16.0,-100.00,NW,319,0.0,0.0,74,-99.99,,,0.00,0.000000,,2013-01-08 19:22:00,
2013-01-08 10:53:00,-8.0,-14.0,-100.00,SSE,168,0.0,0.0,75,0.00,,,0.00,0.000000,,2013-01-08 19:53:00,
2013-01-08 11:02:00,-8.0,-14.0,-100.00,SSE,168,0.0,0.0,75,0.00,,,0.00,0.000000,,2013-01-08 20:02:00,
2013-01-08 11:12:00,-8.0,-14.0,-100.00,SSE,168,0.0,0.0,75,0.00,,,0.00,0.000000,,2013-01-08 20:12:00,
2013-01-08 11:22:00,-8.0,-14.0,-100.00,SSE,168,0.0,0.0,75,0.00,,,0.00,0.000000,,2013-01-08 20:22:00,
2013-01-08 11:53:00,-6.0,-12.0,-100.00,South,172,0.0,0.0,75,0.00,,,0.00,1.000000,,2013-01-08 20:53:00,
2013-01-08 12:02:00,-6.0,-12.0,-100.00,South,172,0.0,0.0,75,0.00,,,0.00,1.000000,,2013-01-08 21:02:00,
2013-01-08 12:12:00,-6.0,-12.0,-100.00,South,172,0.0,0.0,75,0.00,,,0.00,1.000000,,2013-01-08 21:12:00,
2013-01-08 12:22:00,-6.0,-12.0,-100.00,South,172,0.0,0.0,75,0.00,,,0.00,1.000000,,2013-01-08 21:22:00,
2013-01-08 12:53:00,-6.0,-12.0,-100.00,SSW,212,0.0,0.0,75,0.00,,,0.00,3.000000,,2013-01-08 21:53:00,
2013-01-08 13:02:00,-6.0,-12.0,-100.00,SSW,212,0.0,0.0,75,0.00,,,0.00,3.000000,,2013-01-08 22:02:00,
2013-01-08 13:12:00,-6.0,-12.0,-100.00,SSW,212,0.0,0.0,75,0.00,,,0.00,3.000000,,2013-01-08 22:12:00,
2013-01-08 13:22:00,-6.0,-12.0,-100.00,SSW,212,0.0,0.0,75,0.00,,,0.00,3.000000,,2013-01-08 22:22:00,
2013-01-08 13:53:00,-5.0,-11.0,-100.00,ENE,74,0.0,0.0,76,0.00,,,0.00,4.000000,,2013-01-08 22:53:00,
2013-01-08 14:02:00,-5.0,-11.0,-100.00,ENE,74,0.0,0.0,76,0.00,,,0.00,4.000000,,2013-01-08 23:02:00,
2013-01-08 14:12:00,-5.0,-11.0,-100.00,ENE,74,0.0,0.0,76,0.00,,,0.00,4.000000,,2013-01-08 23:12:00,
2013-01-08 14:22:00,-5.0,-11.0,-100.00,ENE,74,0.0,0.0,76,0.00,,,0.00,4.000000,,2013-01-08 23:22:00,
2013-01-08 14:53:00,-3.0,-8.0,-100.00,SE,124,0.0,0.0,77,0.00,,,0.00,3.000000,,2013-01-08 23:53:00,
2013-01-08 15:02:00,-3.0,-8.0,-100.00,SE,124,0.0,0.0,77,0.00,,,0.00,3.000000,,2013-01-09 00:02:00,
2013-01-08 15:12:00,-3.0,-8.0,-100.00,SE,124,0.0,0.0,77,0.00,,,0.00,3.000000,,2013-01-09 00:12:00,
2013-01-08 15:22:00,-3.0,-8.0,-100.00,SE,124,0.0,0.0,77,0.00,,,0.00,3.000000,,2013-01-09 00:22:00,
2013-01-08 15:53:00,-3.0,-8.0,-100.00,SSW,205,0.0,0.0,77,0.00,,,0.00,2.000000,,2013-01-09 00:53:00,
2013-01-08 16:02:00,-3.0,-8.0,-100.00,SSW,205,0.0,0.0,77,0.00,,,0.00,2.000000,,2013-01-09 01:02:00,
2013-01-08 16:12:00,-3.0,-8.0,-100.00,SSW,205,0.0,0.0,77,0.00,,,0.00,2.000000,,2013-01-09 01:12:00,
2013-01-08 16:22:00,-3.0,-8.0,-100.00,SSW,205,0.0,0.0,77,0.00,,,0.00,2.000000,,2013-01-09 01:22:00,
2013-01-08 16:52:00,-3.0,-8.0,-100.00,East,95,0.0,0.0,77,0.00,,,0.00,0.000000,,2013-01-09 01:52:00,
2013-01-08 17:02:00,-3.0,-8.0,-100.00,East,95,0.0,0.0,77,0.00,,,0.00,0.000000,,2013-01-09 02:02:00,
2013-01-08 17:12:00,-3.0,-8.0,-100.00,East,95,0.0,0.0,77,0.00,,,0.00,0.000000,,2013-01-09 02:12:00,
2013-01-08 17:22:00,-3.0,-8.0,-100.00,East,95,0.0,0.0,77,0.00,,,0.00,0.000000,,2013-01-09 02:22:00,
2013-01-08 17:53:00,-4.0,-9.0,-100.00,ENE,62,0.0,0.0,77,0.00,,,0.00,0.000000,,2013-01-09 02:53:00,
2013-01-08 18:03:00,-4.0,-9.0,-100.00,ENE,62,0.0,0.0,77,0.00,,,0.00,0.000000,,2013-01-09 03:03:00,
2013-01-08 18:12:00,-4.0,-9.0,-100.00,ENE,62,0.0,0.0,77,0.00,,,0.00,0.000000,,2013-01-09 03:12:00,
2013-01-08 18:22:00,-4.0,-9.0,-100.00,ENE,62,0.0,0.0,77,0.00,,,0.00,0.000000,,2013-01-09 03:22:00,
2013-01-08 18:53:00,-2.0,-7.0,-100.00,NE,49,0.0,0.0,79,0.00,,,0.00,0.000000,,2013-01-09 03:53:00,
2013-01-08 19:02:00,-2.0,-7.0,-100.00,NE,49,0.0,0.0,79,0.00,,,0.00,0.000000,,2013-01-09 04:02:00,
2013-01-08 19:12:00,-2.0,-7.0,-100.00,NE,49,0.0,0.0,79,0.00,,,0.00,0.000000,,2013-01-09 04:12:00,
2013-01-08 19:22:00,-2.0,-7.0,-100.00,NE,49,0.0,0.0,79,0.00,,,0.00,0.000000,,2013-01-09 04:22:00,
2013-01-08 19:52:00,-1.0,-6.0,-100.00,NE,54,0.0,0.0,79,0.00,,,0.00,0.000000,,2013-01-09 04:52:00,
2013-01-08 20:03:00,-1.0,-6.0,-100.00,NE,54,0.0,0.0,79,0.00,,,0.00,0.000000,,2013-01-09 05:03:00,
2013-01-08 20:12:00,-1.0,-6.0,-100.00,NE,54,0.0,0.0,79,0.00,,,0.00,0.000000,,2013-01-09 05:12:00,
2013-01-08 20:22:00,-1.0,-6.0,-100.00,NE,54,0.0,0.0,79,0.00,,,0.00,0.000000,,2013-01-09 05:22:00,
2013-01-08 20:52:00,-1.0,-6.0,-100.00,North,357,0.0,0.0,79,0.00,,,-99.99,0.000000,,2013-01-09 05:52:00,
2013-01-08 21:02:00,-1.0,-6.0,-100.00,North,357,0.0,0.0,79,0.00,,,-99.99,0.000000,,2013-01-09 06:02:00,
2013-01-08 21:12:00,-1.0,-6.0,-100.00,North,357,0.0,0.0,79,0.00,,,-99.99,0.000000,,2013-01-09 06:12:00,
2013-01-08 21:22:00,-1.0,-6.0,-100.00,North,357,0.0,0.0,79,0.00,,,-99.99,0.000000,,2013-01-09 06:22:00,
2013-01-08 21:52:00,-1.0,-6.0,-100.00,NNW,344,0.0,0.0,79,0.00,,,0.00,0.000000,,2013-01-09 06:52:00,
2013-01-08 22:02:00,-1.0,-6.0,-100.00,NNW,344,0.0,0.0,79,0.00,,,0.00,0.000000,,2013-01-09 07:02:00,
2013-01-08 22:12:00,-1.0,-6.0,-100.00,NNW,344,0.0,0.0,79,0.00,,,0.00,0.000000,,2013-01-09 07:12:00,
2013-01-08 22:22:00,-1.0,-6.0,-100.00,NNW,344,0.0,0.0,79,0.00,,,0.00,0.000000,,2013-01-09 07:22:00,
2013-01-08 22:52:00,-1.0,-6.0,-100.00,East,87,0.0,0.0,79,0.00,,,0.00,0.000000,,2013-01-09 07:52:00,
2013-01-08 23:02:00,-1.0,-6.0,-100.00,East,87,0.0,0.0,79,0.00,,,0.00,0.000000,,2013-01-09 08:02:00,
2013-01-08 23:12:00,-1.0,-6.0,-100.00,East,87,0.0,0.0,79,0.00,,,0.00,0.000000,,2013-01-09 08:12:00,
2013-01-08 23:22:00,-1.0,-6.0,-100.00,East,87,0.0,0.0,79,0.00,,,0.00,0.000000,,2013-01-09 08:22:00,
2013-01-08 23:53:00,-1.0,-6.0,-100.00,NW,317,0.0,0.0,79,0.00,,,0.00,0.000000,,2013-01-09 08:53:00,